Location: Beccas
(43.4309°N, 0.1528°E)
Time: 13:10:21
(UTC+00:00)

Transit 2A Rocket - Pass Details

Date: 30 May 2022
Orbit: 593 x 908 km, 66.7° (Epoch: 30 June)

Event Time Altitude Azimuth Distance (km) Brightness Sun altitude
Rises 21:01:02 0° 328° (NNW) 2,913 9.9 -13.2°
Reaches altitude 10° 21:03:21 10° 329° (NNW) 1,974 8.5 -13.5°
Maximum altitude 21:07:45 87° 56° (NE) 603 4.4 -14.0°
Enters shadow 21:10:19 24° 148° (SSE) 1,244 5.5 -14.3°
